Location: Sungai Laei
(2.6000°N, 113.7167°E)
Time: 08:29:11
(UTC+00:00)

SWIFT - Visible Passes

Search period start: 06 October 2022 00:00
Search period end: 16 October 2022 00:00
Orbit: 538 x 552 km, 20.6° (Epoch: 05 October)

Date Brightness Start Highest point End Pass type
(mag) Time Alt. Az. Time Alt. Az. Time Alt. Az.
06 Oct 4.8 11:32:54 10° NW 11:34:43 12° NNW 11:36:06 11° N visible
06 Oct 4.7 20:08:46 20° SE 20:08:46 20° SE 20:10:08 10° SE visible
06 Oct 4.4 21:45:27 10° SW 21:47:52 15° SSW 21:50:17 10° SSE visible
07 Oct 4.9 11:25:31 10° NNW 11:26:10 10° NNW 11:26:48 10° N visible
07 Oct 5.2 20:00:45 13° SE 20:00:45 13° SE 20:01:18 10° SE visible
07 Oct 4.6 21:37:48 10° SW 21:39:15 12° SSW 21:40:43 10° S visible
